This demonstration page uses our WeatherBlox Daily Observations layout. Learn more.

Left ArrowRight Arrow

39.92423, -83.80882

Hourly Observations for February 9, 2021

Temp ( °F °C ) Dew Point ( °F °C ) Humidity (%) Winds ( mph kmh ) Pressure ( in mb ) Visibility ( mi km ) Precip ( " mm )
12:14 am 00:14 Cloudy with Light Snow 21 -6 21 -6 100 100 Calm 30.26 1025 2 3 0.00 0.00
12:27 am 00:27 Cloudy with Light Snow 21 -6 21 -6 100 100 Calm 30.26 1025 3 5 0.00 0.00
12:56 am 00:56 Cloudy with Light Snow 23 -5 23 -5 100 100 SE 3 6 30.22 1024 4 6 0.00 0.00
1:56 am 01:56 Cloudy with Light Snow 23 -5 23 -5 100 100 Calm 30.21 1023 3 5 0.00 0.00
2:56 am 02:56 Cloudy with Light Snow 23 -5 23 -5 100 100 NW 5 7 30.23 1024 2 3 0.00 0.00
3:04 am 03:04 Cloudy with Light Snow 23 -5 23 -5 100 100 NW 5 7 30.26 1025 2 2 0.00 0.00
3:25 am 03:25 Cloudy with Light Snow 23 -5 23 -5 100 100 NW 6 9 30.26 1025 1 2 0.00 0.00
3:31 am 03:31 Cloudy with Light Snow 23 -5 23 -5 100 100 NW 6 9 30.26 1025 1 1 0.00 0.00
3:36 am 03:36 Cloudy with Snow 23 -5 23 -5 100 100 NW 7 11 30.26 1025 1 1 0.00 0.00
3:47 am 03:47 Cloudy with Light Snow 25 -4 25 -4 100 100 NW 5 7 30.25 1024 1 1 0.00 0.00
3:56 am 03:56 Cloudy with Light Snow 24 -4.4 24 -4.4 100 100 NNW 3 6 30.22 1023 1 1 0.00 0.00
4:29 am 04:29 Cloudy with Light Snow 23 -5 23 -5 100 100 NNW 3 6 30.25 1024 1 2 0.00 0.00
4:36 am 04:36 Cloudy with Light Snow 23 -5 23 -5 100 100 N 3 6 30.25 1024 1 2 0.00 0.00
4:45 am 04:45 Cloudy with Light Snow 23 -5 23 -5 100 100 N 3 6 30.25 1024 1 2 0.00 0.00
4:56 am 04:56 Cloudy with Light Snow 23 -5 23 -5 100 100 N 3 6 30.22 1023 1 2 0.00 0.00
5:04 am 05:04 Cloudy with Light Snow 23 -5 23 -5 100 100 Calm 30.26 1025 2 3 0.00 0.00
5:25 am 05:25 Cloudy with Light Snow 23 -5 23 -5 100 100 NNW 6 9 30.27 1025 2 3 0.00 0.00
5:32 am 05:32 Cloudy with Light Snow 23 -5 23 -5 100 100 NNW 8 13 30.27 1025 3 4 0.00 0.00
5:40 am 05:40 Cloudy with Light Snow 23 -5 23 -5 100 100 N 7 11 30.26 1025 2 3 0.00 0.00
5:56 am 05:56 Cloudy with Light Snow 22 -5.6 22 -5.6 100 100 NE 7 11 30.22 1024 3 4 0.00 0.00
6:09 am 06:09 Cloudy with Light Snow 21 -6 21 -6 100 100 NNE 7 11 30.25 1024 3 5 0.00 0.00
6:56 am 06:56 Cloudy with Light Snow 21 -6.1 20 -6.7 96 96 N 7 11 30.24 1024 5 8 0.00 0.00
7:56 am 07:56 Cloudy with Light Snow 21 -6.1 20 -6.7 96 96 N 6 9 30.25 1024 4 6 0.00 0.00
8:05 am 08:05 Cloudy with Light Snow 21 -6 19 -7 93 93 NNE 7 11 30.28 1025 4 6 0.00 0.00
8:25 am 08:25 Cloudy with Light Snow 21 -6 19 -7 93 93 NE 6 9 30.29 1026 4 6 0.00 0.00
8:56 am 08:56 Cloudy with Light Snow 21 -6.1 19 -7.2 92 92 NE 6 9 30.27 1025 6 10 0.00 0.00
9:56 am 09:56 Cloudy 22 -5.6 19 -7.2 89 89 NE 5 7 30.28 1025 7 11 0.00 0.00
10:56 am 10:56 Cloudy 23 -5 20 -6.7 88 88 NNW 8 13 30.29 1026 8 13 0.00 0.00
11:56 am 11:56 Cloudy with Mist and Fog 23 -5 20 -6.7 88 88 NNW 9 15 30.30 1026 4 6 0.00 0.00
12:56 pm 12:56 Cloudy 23 -5 19 -7.2 85 85 NNE 8 13 30.28 1026 7 11 0.00 0.00
1:56 pm 13:56 Cloudy 24 -4.4 20 -6.7 84 84 NNE 7 11 30.27 1025 9 14 0.00 0.00
2:56 pm 14:56 Cloudy 24 -4.4 19 -7.2 81 81 N 6 9 30.28 1025 8 13 0.00 0.00
3:56 pm 15:56 Cloudy 25 -3.9 19 -7.2 78 78 NNW 6 9 30.29 1026 10 16 0.00 0.00
4:56 pm 16:56 Cloudy 24 -4.4 19 -7.2 81 81 NNW 9 15 30.32 1027 10 16 0.00 0.00
5:56 pm 17:56 Cloudy 22 -5.6 18 -7.8 85 85 NNW 9 15 30.33 1027 10 16 0.00 0.00
6:56 pm 18:56 Cloudy 21 -6.1 17 -8.3 85 85 NW 7 11 30.36 1028 10 16 0.00 0.00
7:56 pm 19:56 Cloudy 20 -6.7 17 -8.3 89 89 NNW 8 13 30.37 1028 10 16 0.00 0.00
8:56 pm 20:56 Cloudy 20 -6.7 16 -8.9 85 85 N 8 13 30.37 1029 10 16 0.00 0.00
9:56 pm 21:56 Cloudy 19 -7.2 15 -9.4 84 84 NNE 8 13 30.38 1029 10 16 0.00 0.00
10:56 pm 22:56 Cloudy 16 -8.9 12 -11.1 84 84 NNE 3 6 30.39 1029 10 16 0.00 0.00
11:56 pm 23:56 Cloudy 16 -8.9 12 -11.1 84 84 N 3 6 30.38 1029 10 16 0.00 0.00

Powered by AerisWeather